STARLINK-32779, 63030

Orbit data source: Space-Track

STARLINK-32779, 63030 is a payload satellite owned by SpaceX/Seattle (US) in LEO that was launched on Tue, 18 Feb 2025 UTC via an FALCON 9 launch vehicle from the Air Force Eastern Test Range (AFETR). Payload-class satellites include a variety of spacecraft equipped with specific instruments for various scientific and technological missions. These include communications satellites like Starlink; space stations such as the ISS; scientific satellites like the Hubble; Earth observation satellites from companies like Planet Labs, Umbra, and HawkEye 360; GPS; miniature CubeSats for education and research; and military/defense satellites.

Loading next visibility...
Identifier
63030, 2025-034B
Orbit
LEO
Country
Flag of USUS
Related business
Manufacturer
SpaceX/Seattle
Mission
Operational Commercial Communications
Bus & Motor
STARLINK V2M, Unknown motor
Mass
730 kg wet, ~700 kg dry
Launch date (UTC)
2025-02-18 (1 year ago)
Launch vehicle
FALCON 9
Launch site
Air Force Eastern Test Range (AFETR)
Object type
Payload
Rocket body
Debris
Shape & HBR
Box + 2 Pan, 17.7 m
Radar Cross Section
33.884 m², Large (>1 m²)

Expand to show TLE details & history
Last TLE update: 10 hours ago

TLE from 10 hours ago
0 STARLINK-32779
1 63030U 25034B   26171.41858137  .00010421  00000-0  31926-3 0  9992
2 63030  53.1603 153.8488 0001157  84.7162 275.3973 15.34388158 74633
Epoch: 2026-06-20T10:02Z
TLE epoch observation values (Epoch: 2026-06-20T10:02:45.430Z)
Latitude
0.00002°
Longitude
94.52604°
Altitude
463.565 km
Speed
7.636 km/s
True Right ascension
10h 15m 23s
True Declination
0° 00' 00"
Sunlit
Object was in daylight at epoch
Visualization orbit readout
Latitude
Unknown
Longitude
Unknown
Altitude
Unknown
Speed
Unknown
Apparent Right ascension
Unknown
Apparent Declination
Unknown
Sunlit
N/A
Visualization observer readout
Local Sidereal Time
07:16:52
Azimuth
Unknown
Elevation
Unknown
Doppler factor
Unknown
Orbital elements
Apogee altitude
463.787 km
Perigee altitude
462.204 km
Semi-major axis
6,841.132 km
Eccentricity
0.00012
Inclination
53.1603°
RAAN
153.8488°
Arg. of periapsis
84.7162°
True anomaly
275.3841°
Mean anomaly
275.3973°
Eccentric anomaly
275.3907°
Mean motion
3.83576 °/min
Orbital period
93.85 mins
BSTAR
0.00031926
Loading maneuver chart data...
Computing Atmospheric mass density...
Loading historical data...
Loading historical data...
Loading historical data...
Loading historical data...
Loading historical data...
Loading historical data...
Loading historical data...

Documentation

Showing up to 5 results
|